User: anonymous   Login
Location: Mentone
(34.5413°N, 85.5351°W)
Time: 05:28:49
(UTC-05:00)
Language:

Cosmos 2026 Rocket - Orbit

View from above orbital plane
View from above orbital plane
View from above satellite
View from above satellite

Ground track
Ground track

The orbit data is extracted from the following two-line orbital elements,

1 20046U 89042B   15149.50655332 -.00000042  00000-0 -56338-4 0  9991
2 20046 082.9360 141.8449 0042438 012.6069 099.1264 13.78017529306001
Epoch (UTC): 29 May 2015 12:09:26
Eccentricity: 0.0042438
inclination: 82.9360°
perigee height: 940 km
apogee height: 1002 km
right ascension of ascending node: 141.8449°
argument of perigee: 12.6069°
revolutions per day: 13.78017529
mean anomaly at epoch: 99.1264°
orbit number at epoch: 30600

The dashed part of the orbit path shows where the satellite is in the earth's shadow,  

DLR